OBJECT C

基本信息
目录编号:
49814
目录名称:
OBJECT C
国际标识:
2021-117C
轨道中心:
EARTH
物体状态:
已陨落(2023-08-19)
发射日期:
2021-12-07 UTC
国别:
中国 (CN)
轨道信息
数据来源: 国际轨道数据
星历时间: 2023-08-19T16:02:05+0800
半长轴: 6528.1km
偏心率: 0.0014868
轨道倾角: 97.313°
近地点辐角: 261.652°
升交点赤经: 318.344°
平近点角: 98.309°
近地点: 140.259km
远地点: 159.671km
周期: 87.486分钟
每日圈数: 16.459726
详细信息
发射场:
JSC
轨道高度:
LEO
数据来源:
AOE Integration Group
参考系:
TEME
时间系统:
UTC
历元类型:
SGP4
2D轨道图
3D轨道图
轨道高度分析图
轨道倾角分析图
轨道综合分析图
查看轨道综合分析图